DECAYED
Showing default

SUCHAI-3, 52191 (Decayed)

Orbit data source: Space-Track

SUCHAI-3, 52191 was a payload satellite owned by SPEL/UCH (CL) in LEO that was launched on Fri, 01 Apr 2022 UTC via an FALCON 9 launch vehicle from the Air Force Eastern Test Range (AFETR). Payloads include a variety of satellites, spacecraft, and rockets equipped with specific instruments for various scientific and technological missions. These include communications satellites like Starlink; space stations such as the ISS; scientific satellites like the Hubble; Earth observation satellites from companies like Planet Labs, Umbra, and HawkEye 360; GPS; miniature CubeSats for education and research; and military/defense satellites.

Not visible in the next 10 days
SUCHAI-3 details
Identifier
52191, 2022-033AL
Orbit
Decayed
Last TLE update7 months ago
Origin
Flag of CLSPEL/UCH (CL / CHLE)
ManufacturerSPEL/UCH
MissionDecayed Amateur Technology
Bus & MotorCUBESAT 3U, Unknown motor
Mass~4 kg wet, ~4 kg dry
Launch date (UTC)
2022-04-01 (3 years ago)
Launch vehicle
FALCON 9
Launch site
Air Force Eastern Test Range (AFETR)
Object type
Payload
Rocket body
Debris
Shape & HBRBox, 0.3 m
Radar Cross Section0.035 m², Small (<0.1 m²)

Expand to show TLE details & history

TLE from 7 months ago
0 SUCHAI-3
1 52191U 22033AL  24146.50949412  .15429445  25297-5  22962-3 0  9997
2 52191  97.2978 240.3180 0016695 271.5522  88.3869 16.47492065120493
Epoch: 2024-05-25T12:13Z
Definitive object data (Epoch: 2024-05-25T12:13:40.291Z)
Latitude-0.00008°
Longitude173.32645°
Altitude148.924 km
Speed7.817 km/s
True Right ascension16h 01m 16s
True Declination0° 00' 00"
Sunlit
Object was in full shadow at TLE epoch
Visualization observer readout
Observer readout values are unavailable because the object's trajectory could not be propagated. This is usually caused when the trajectory data is faulty or the object's orbit has decayed.
Visualization observer readout
Observer readout values are unavailable because the object's trajectory could not be propagated. This is usually caused when the trajectory data is faulty or the object's orbit has decayed.
Orbital elements
Apogee altitude153.628 km
Perigee altitude131.855 km
Semi-major axis6,520.878 km
Eccentricity0.0016695
Inclination97.2978°
RAAN240.318°
Arg. of periapsis271.5522°
True anomaly88.57815°
Mean anomaly88.3869°
Eccentric anomaly88.48252°
Mean motion4.12177 °/min
BSTAR0.00022962
Orbital period87.34 mins
Loading maneuver chart data...

SUCHAI-3 Visibility forecast

Observer location: undefined°, undefined

This satellite is decayed
Span
Click to sort rows by Start time (UTC) header in descending order
Start Az.
Max El. time (UTC)
Max El. Az.
Max El.
End time (UTC)
End Az.
|